Rbgn^[z[y[W
メイン
   新天体発見情報
     Comet C/2023 RN3 (ATLAS)
投稿するにはまず登録を

スレッド表示 | 古いものから 前のトピック | 次のトピック | 下へ
投稿者 スレッド
佐藤裕久
投稿日時: 2023-12-24 2:03
モデレータ
登録日: 2005-6-12
居住地: 日本
投稿: 2697
オンライン
Comet C/2023 RN3 (ATLAS)

9月4.6日UT、ハワイ Haleakalaにある小惑星地球衝突最終警報システム "Asteroid Terrestrial-
impact Last Alert System" (ATLAS)調査プログラムのコースに0.5-m f/2 Schmidt反射望遠鏡で得
たCCD画像から小惑星状天体が発見され、MPEC 2023-R115に小惑星符号 2023 RN3として発表された。
佐藤英貴氏(東京都文京区,10月4.2日UT、120-秒CCD露出6枚のスタック, "Deep Sky Chile" 0.51-m 
f/6.8 アストログラフ, Rio Hurtado, チリ, 遠隔操作:強く集光した10" のコマが見えるが、尾は
ない。5".0.の円形範囲で測定した光度は17.1等であった)らCCD観測者によって彗星状と観測された。

彗星機能の報告は次のとおり、

OC   Date        Reporter           Coma    Tail    PA          Exposures
X07  2023-10-04  H. Sato           10"                            6x120s
Z31  2023-11-16  H. Hsieh           9"                            3x245s
F51  2023-11-16  R. Weryk           0".9                          4x45s
F51  2023-11-25  R. Weryk           0".9                          8x45s
X09  2023-12-03  K. Ly              8"                            3x600s
X09  2023-12-04  K. Ly              8"                            7x600s

発見位置は次のとおり、

     2023 UT             R.A. (2000) Decl.       Mag.
     Sept. 4.56281    0 10 10.03   + 7 13 13.3   17.5
           4.56800    0 10 09.90   + 7 13 13.9   17.3
           4.57162    0 10 09.82   + 7 13 12.9   17.7
           4.60420    0 10 09.17   + 7 13 07.8   17.9

MPCの楕円軌道要素、位置推算表は次のとおり、

Orbital elements:
    C/2023 RN3 (ATLAS)                                                          
Epoch 2023 Sept. 13.0 TT = JDT 2460200.5                                        
T 2023 Jan. 17.64402 TT                                 Rudenko                 
q   5.1718986            (2000.0)            P               Q                  
n   0.03050043     Peri.  130.26666     +0.91710570     +0.39015818             
a  10.1453128      Node   207.06693     -0.39797954     +0.88424100             
e   0.4902179      Incl.   10.35820     -0.02300926     +0.25669916             
P  32.3                                                                         
From 500 observations 2023 Aug. 26-Dec. 4, mean residual 0".3.                  
                                                                                
Ephemeris:
Date    TT    R. A. (2000) Decl.     Delta      r    Elong.  Phase   m1
2023 11 06    23 51 06.3 +03 39 17   4.6352  5.3953   136.3     7.3  18.2
...
2023 11 21    23 50 34.7 +03 07 38   4.8433  5.4179   120.9     9.0  18.3
...
2023 11 29    23 51 18.9 +02 57 37   4.9688  5.4304   113.0     9.6  18.3
...
2023 12 05    23 52 19.6 +02 53 22   5.0676  5.4399   107.1    10.0  18.4
2023 12 06    23 52 32.0 +02 52 55   5.0844  5.4415   106.2    10.0  18.4
2023 12 07    23 52 45.1 +02 52 34   5.1013  5.4431   105.2    10.1  18.4
...
2023 12 13    23 54 16.7 +02 52 01   5.2040  5.4528    99.4    10.3  18.4
...
2023 12 21    23 56 53.3 +02 55 33   5.3435  5.4660    91.9    10.4  18.5
...
2024 01 05    00 03 23.5 +03 14 22   5.6058  5.4914    78.3    10.1  18.6

(MPEC 2023-X85、CBET 5321)

スレッド表示 | 古いものから 前のトピック | 次のトピック | トップ

投稿するにはまず登録を
 
© 1999 Tsutomu Seki.